Regional Weather Roundup
Issued by NWS

Home | Current Version | Previous Version | Graphics & Text | Print | Product List | Glossary On
Versions: 1 2 3 4 5 6 7 8 9 10 11 12 13 14 15 16 17 18 19 20 21 22 23 24 25 26 27 28 29 30 31 32 33 34 35 36 37 38 39 40 41 42 43 44 45 46 47 48 49 50
000
ASUS43 KLMK 222210
RWRKY
KENTUCKY REGIONAL WEATHER ROUNDUP
NATIONAL WEATHER SERVICE LOUISVILLE KY
600 PM EDT MON MAY 22 2017

NOTE "FAIR" INDICATES FEW OR NO CLOUDS BELOW 12,000 FEET
WITH NO SIGNIFICANT WEATHER AND/OR OBSTRUCTIONS TO VISIBILITY.

KYZ001>023-026-027-061>063-070>075-222300-
WESTERN AND SOUTH CENTRAL KENTUCKY

CITY           SKY/WX    TMP DP  RH WIND       PRES   REMARKS
PADUCAH        CLOUDY    74  46  36 CALM      29.98F
HENDERSON      SUNNY     72  48  42 MISG      30.01
OWENSBORO      MOSUNNY   73  51  46 SW6       30.01F
HOPKINSVILLE   CLOUDY    72  49  44 E9        29.99F
BOWLING GREEN  SUNNY     72  53  51 NE8       30.02F
GLASGOW        CLOUDY    71  49  45 E6        30.02F
$$

KYZ024-025-028>034-038-045-046-053-222300-
NORTH CENTRAL KENTUCKY

CITY           SKY/WX    TMP DP  RH WIND       PRES   REMARKS
LOUISVILLE/SDF CLOUDY    71  47  42 VRB6      30.04S
LOUISVILLE/LOU MOSUNNY   70  46  42 VRB5      30.05S
FORT KNOX      SUNNY     69  49  48 S3        30.02F
$$

KYZ035>037-039>044-047>052-055>060-089>105-222300-
NORTHEAST KENTUCKY

CITY           SKY/WX    TMP DP  RH WIND       PRES   REMARKS
LEXINGTON      CLOUDY    69  48  47 CALM      30.04F
COVINGTON      CLOUDY    66  44  45 VRB3      30.04F
FRANKFORT      CLOUDY    68  48  48 SE6       30.03F
$$

KYZ054-064>069-076>088-106>120-222300-
SOUTHEAST KENTUCKY

CITY           SKY/WX    TMP DP  RH WIND       PRES   REMARKS
JACKSON        MOSUNNY   68  52  56 VRB3      30.04F
LONDON         PTSUNNY   69  46  43 NE5       30.04F
SOMERSET       CLOUDY    66  46  48 N5        30.06R
MIDDLESBORO    MOSUNNY   71  56  57 N6        30.02F
MONTICELLO     MOCLDY    68  50  52 N14       30.06S
$$





USA.gov is the U.S. government's official web portal to all federal, state and local government web resources and services.